Theta_e
348 353 361 361 360 359 359 360 360 361 362 364 364 365 365 365 366 366 366 365 364 365 363 362 362 362 360 359 359 358 358 357 356 356 358 355 355 353 355 353 353 350 355
349 353 361 361 361 360 360 361 363 363 362 365 366 366 365 364 363 364 365 364 364 363 362 361 362 361 359 357 357 356 355 357 356 356 357 356 355 352 354 353 352 349 353
349 353 358 363 361 361 361 361 361 364 363 366 367 366 364 364 363 363 363 364 363 362 361 361 361 360 359 358 356 353 354 354 355 355 357 354 353 356 354 351 353 353 355
353 354 356 363 363 363 363 365 365 364 364 366 367 367 366 364 363 363 364 362 362 361 360 360 360 358 357 357 357 356 353 353 354 354 354 353 352 355 353 350 355 354 353
354 357 359 363 364 363 364 364 366 365 364 366 366 364 364 364 364 363 362 361 361 360 360 358 358 357 356 357 358 357 355 354 353 354 353 353 352 352 351 351 352 353 353
355 358 363 364 363 364 364 366 365 367 365 365 366 365 364 363 362 362 360 360 359 359 358 358 357 357 357 358 359 358 356 354 354 353 353 353 352 352 352 350 352 349 350
354 358 359 365 365 364 365 365 366 364 363 366 364 363 363 363 362 362 360 360 359 359 358 358 359 358 359 358 359 359 357 355 352 353 352 354 353 354 352 350 351 351 353
355 357 360 363 365 365 363 363 364 364 364 364 364 363 363 363 362 361 360 359 358 358 358 358 359 360 360 360 358 358 357 356 354 352 352 353 353 355 355 351 351 354 352
357 356 357 360 362 364 366 363 363 363 364 363 363 364 364 363 363 362 361 360 360 359 359 360 360 361 360 360 358 358 357 357 355 353 351 353 356 355 356 352 350 351 354
356 356 355 357 358 359 360 363 362 362 362 362 363 364 364 363 362 361 362 361 361 361 362 361 359 359 358 358 358 358 355 355 354 353 354 353 356 357 354 353 353 351 353
355 355 356 356 356 358 358 361 364 363 363 362 362 363 364 358 358 357 353 358 359 359 360 361 359 358 359 358 356 357 357 357 354 354 354 353 356 357 357 354 353 353 352
348 353 355 356 356 358 363 359 358 358 358 359 360 358 357 356 355 351 356 357 358 355 360 360 358 358 356 353 351 352 349 350 354 354 354 354 356 357 358 355 355 353 355
350 352 354 355 356 357 359 357 355 356 356 357 357 357 357 355 352 354 351 350 352 354 354 355 355 353 352 352 352 351 351 350 349 352 354 356 357 357 358 357 354 354 353
348 351 353 355 355 355 355 356 355 355 355 354 355 355 353 352 349 349 348 352 353 351 351 351 351 350 350 351 350 349 351 350 350 349 349 355 359 358 357 358 358 355 353
347 350 351 353 354 355 354 355 354 354 355 354 355 354 354 352 347 346 350 352 352 351 351 350 350 349 348 349 349 349 349 350 350 349 349 355 359 359 358 357 357 358 355
348 349 351 352 353 353 353 353 353 353 354 353 354 354 354 353 348 348 349 351 349 351 350 351 349 348 346 345 346 347 347 348 348 348 348 352 355 359 358 358 358 359 359
348 350 350 351 354 352 352 352 350 352 353 352 353 353 351 354 349 349 347 348 348 348 349 348 347 345 344 344 344 344 344 345 346 346 348 350 352 355 358 360 359 360 358
349 347 350 353 352 351 350 351 351 352 350 350 352 352 350 353 352 350 348 347 348 348 347 346 344 343 343 342 341 342 343 343 344 345 347 348 350 350 354 356 359 359 358
347 348 348 351 351 350 350 351 351 352 352 352 353 353 351 352 352 351 347 347 348 347 346 345 343 343 341 340 341 343 343 342 343 344 344 345 346 349 350 352 356 358 357
345 348 349 350 350 350 350 351 352 352 352 353 353 349 351 351 352 350 348 347 348 345 344 343 342 342 341 341 340 339 339 339 341 341 342 344 344 346 347 350 354 353 352
344 346 346 346 348 349 348 347 348 348 350 350 351 352 352 349 351 349 348 346 346 344 343 342 341 339 339 339 336 336 334 335 335 337 341 339 337 342 344 346 350 352 350
341 345 345 346 347 348 348 348 348 348 348 349 350 351 352 351 351 348 346 345 345 342 339 338 338 336 336 339 334 328 326 329 332 334 337 337 334 336 337 341 343 344 347
339 341 343 344 346 348 349 347 347 347 345 344 346 348 348 349 349 348 345 343 340 339 337 338 337 335 334 336 336 332 323 321 327 331 333 334 333 335 336 338 338 340 342
339 342 343 343 343 347 348 347 345 343 341 340 341 345 343 343 342 342 340 338 339 337 337 337 339 337 335 332 334 336 333 331 324 322 327 329 330 331 334 336 335 335 337
341 340 342 342 343 346 347 348 346 341 339 334 337 340 337 335 337 338 338 340 338 336 336 337 336 336 335 333 331 331 330 329 328 324 319 323 326 330 332 333 333 332 331
340 341 342 342 343 346 347 347 346 342 333 332 333 333 331 330 332 336 339 339 337 335 335 336 335 335 335 334 333 331 328 325 325 324 322 321 322 325 329 330 330 328 327
Wind_Speed
3 5 16 18 17 15 13 15 16 15 14 15 16 14 13 12 11 10 10 10 10 10 10 10 10 10 9 8 7 7 6 8 9 9 9 9 7 5 8 9 7 6 8
5 4 14 15 14 13 13 14 15 15 14 14 14 14 13 11 11 10 9 10 9 10 9 9 10 9 8 7 6 4 5 6 7 8 8 7 4 4 6 7 7 7 8
5 6 11 13 13 14 15 16 16 15 16 15 14 12 12 12 11 9 9 9 8 7 6 7 8 7 5 5 4 2 3 4 4 6 7 3 1 8 7 6 7 9 11
7 6 7 13 15 16 17 16 17 16 16 14 14 12 12 11 11 9 8 8 7 5 5 6 5 4 3 3 3 3 2 2 2 4 4 2 2 8 6 6 10 10 10
6 6 8 15 14 17 16 17 16 16 14 13 13 12 11 10 9 7 6 6 5 4 4 3 3 3 3 3 4 4 2 2 1 3 4 2 0 6 6 5 10 8 8
6 6 12 16 16 15 15 15 15 14 13 11 10 10 9 8 8 6 5 4 3 3 2 2 3 3 3 4 6 5 4 2 2 0 4 4 3 6 7 5 8 8 8
5 6 9 14 14 15 14 14 13 12 11 9 9 9 9 8 7 5 3 2 1 1 2 2 4 5 5 4 5 6 4 2 2 2 3 3 4 6 9 7 9 10 8
5 5 6 13 14 14 14 13 13 12 11 10 10 9 8 7 6 4 3 2 2 3 3 4 6 6 6 5 5 5 4 5 2 3 3 3 6 8 9 8 7 7 9
5 5 5 5 10 14 12 13 12 11 11 10 10 9 8 6 5 4 5 4 4 5 5 5 6 5 5 5 5 4 4 5 2 2 3 3 8 9 8 9 8 8 10
5 4 5 4 4 5 4 11 10 9 9 9 8 8 7 7 6 6 5 5 6 6 8 7 6 5 3 3 2 3 2 3 1 2 3 4 11 11 9 9 11 10 9
5 4 4 4 4 4 4 6 9 10 9 9 7 8 6 2 2 3 3 7 8 8 7 8 5 4 5 5 6 7 6 1 1 2 2 6 9 13 12 11 10 10 11
8 6 5 5 5 5 4 3 4 4 4 4 4 4 2 3 3 4 5 5 8 6 5 6 4 5 5 3 3 4 2 3 2 3 2 7 11 14 12 12 11 12 12
9 7 7 6 5 6 4 3 2 2 2 2 4 4 2 2 2 1 1 2 2 4 2 3 3 3 4 3 3 3 3 4 3 3 4 8 10 14 13 13 13 12 12
8 8 6 6 6 6 3 4 3 3 3 3 3 4 3 2 3 3 2 2 1 1 1 1 2 3 4 4 5 5 4 3 3 3 5 9 10 13 13 13 14 14 14
9 8 7 6 6 6 5 3 3 4 4 4 4 4 3 3 3 2 2 2 1 1 1 2 1 2 3 4 5 4 4 5 5 3 3 8 9 11 13 13 14 14 15
9 10 8 9 7 6 6 5 4 4 5 4 4 5 7 5 3 3 2 2 2 2 1 1 1 2 2 3 5 5 5 5 5 5 3 3 10 11 14 16 13 16 16
12 11 10 11 8 8 8 6 4 5 4 4 5 6 5 5 4 3 2 3 3 2 2 1 2 2 3 2 3 4 4 4 5 6 4 3 4 8 10 13 14 13 16
10 11 10 9 9 8 7 6 4 4 3 4 4 3 5 5 5 4 3 3 2 2 1 1 1 2 2 2 3 4 4 4 4 5 4 3 2 4 6 10 12 14 15
12 11 10 8 8 9 6 5 5 4 3 2 2 2 3 3 3 3 3 2 2 1 2 1 0 1 2 3 4 4 4 4 4 3 5 4 4 4 4 7 10 12 16
10 10 9 8 7 7 4 2 1 1 2 2 3 3 4 3 3 3 2 3 3 2 1 1 1 1 2 3 5 6 4 3 2 3 3 3 3 3 3 4 3 4 9
9 8 9 8 8 6 2 3 2 3 2 2 3 4 4 4 4 4 3 3 3 2 1 1 0 0 1 1 2 3 2 2 5 4 3 4 6 6 6 4 2 3 4
13 13 10 11 9 8 5 3 3 3 2 2 2 3 4 4 4 4 4 3 3 2 2 1 1 1 1 0 1 0 3 2 2 4 3 4 7 5 6 6 7 7 5
12 12 12 12 11 8 8 4 2 2 2 1 2 2 3 5 5 5 4 3 3 2 2 1 1 2 1 1 0 1 1 2 3 2 3 3 6 4 4 5 7 8 8
14 11 12 12 10 9 10 7 6 4 4 3 3 2 4 5 5 5 5 4 3 2 2 2 2 1 2 1 1 1 1 1 1 3 2 3 5 4 5 4 5 7 7
14 12 11 10 9 9 10 9 7 4 3 2 2 4 4 3 4 5 5 5 4 3 3 3 2 3 1 1 1 0 2 2 2 1 3 4 3 3 3 3 4 4 7
11 11 11 11 11 10 10 11 11 9 6 4 3 4 3 2 2 4 5 4 4 4 3 2 2 3 2 2 2 2 2 2 2 1 1 2 2 3 3 3 2 2 4
Wind_Direction
187 153 119 124 127 136 144 143 145 145 135 131 129 128 124 117 115 109 102 109 105 103 101 98 93 87 79 81 84 87 104 109 108 111 116 101 110 105 103 96 102 105 116
147 166 135 135 141 148 151 147 139 137 131 128 127 128 128 127 121 114 110 113 112 113 113 110 96 86 79 74 73 97 98 110 122 122 115 114 121 132 98 103 127 119 111
154 163 148 148 142 143 142 140 138 134 135 136 133 136 134 132 128 126 119 118 109 105 107 98 89 84 76 67 53 57 94 109 134 134 111 99 60 116 108 106 133 125 120
133 125 135 144 146 140 146 143 141 144 140 136 137 140 134 132 133 131 120 110 108 114 105 83 76 69 56 51 17 31 36 126 150 145 114 133 121 114 110 113 117 114 122
114 126 152 147 146 144 144 141 145 146 143 141 140 139 136 134 128 120 117 122 125 120 89 77 68 37 11 14 348 12 338 19 199 142 148 133 97 119 128 124 122 122 118
128 140 150 151 150 147 145 141 144 145 141 139 133 137 136 134 128 125 130 117 113 75 53 17 18 355 349 349 334 348 358 9 18 97 138 176 130 132 132 135 128 138 143
129 135 148 154 150 149 142 142 140 137 139 137 143 146 146 146 139 140 136 129 93 343 321 319 328 341 333 325 319 323 346 251 57 98 173 164 166 158 147 159 151 155 144
126 128 151 152 149 147 147 141 136 148 149 152 154 159 158 158 153 165 184 203 262 288 293 319 323 328 322 317 313 309 313 314 84 158 179 178 183 186 170 165 159 154 158
119 127 131 139 158 155 155 150 153 155 157 165 169 167 165 167 177 204 236 248 261 276 288 309 313 318 319 308 321 322 316 297 267 187 184 189 201 197 175 167 179 171 165
129 137 141 143 136 142 157 168 171 171 173 181 174 171 178 189 208 231 254 294 275 278 286 302 308 312 297 284 298 337 303 318 328 255 232 202 203 203 187 184 180 183 193
154 159 151 147 145 146 144 181 185 190 192 197 200 195 200 186 267 279 294 276 283 284 304 302 307 323 357 15 9 23 22 305 286 273 211 223 222 205 198 196 193 202 189
181 188 176 165 169 164 166 178 169 188 183 192 203 223 179 200 238 236 276 297 291 268 302 322 301 5 22 6 346 355 355 318 303 285 248 235 218 206 207 201 199 207 206
184 187 179 177 175 172 180 186 189 192 183 198 209 219 222 224 263 289 281 317 308 331 339 345 17 22 356 4 342 332 338 314 310 297 273 269 234 211 216 201 209 209 223
183 191 176 175 176 181 180 191 185 189 195 208 216 214 208 218 227 239 248 251 292 321 315 12 12 346 354 334 324 328 326 310 303 283 275 265 252 219 227 220 208 210 216
181 192 192 176 188 190 194 199 190 202 203 206 204 211 201 221 229 252 250 262 284 283 313 333 360 347 327 325 318 316 319 318 310 309 286 275 249 223 227 237 224 217 219
184 195 185 196 193 178 196 206 209 200 216 209 208 211 209 216 212 227 239 243 266 244 267 290 313 308 307 313 314 326 319 310 309 305 299 270 273 241 230 234 232 221 216
193 190 192 196 189 192 199 213 208 212 202 221 221 214 207 216 211 215 231 232 251 255 248 284 290 297 305 315 296 310 309 307 308 313 310 283 284 290 280 247 231 229 228
190 192 195 198 189 194 197 205 212 219 221 228 226 216 209 215 209 202 212 230 233 234 247 253 283 303 292 305 306 304 304 306 303 306 308 318 307 290 292 288 249 233 235
192 194 194 192 187 188 197 206 207 208 210 224 228 218 210 226 227 204 220 212 197 208 238 210 262 250 303 317 317 308 315 318 313 300 301 311 300 279 275 283 286 255 247
188 196 196 189 188 187 177 170 121 245 241 220 215 211 221 230 222 185 184 197 164 159 196 194 235 301 292 307 311 308 328 336 326 2 16 23 359 330 296 270 288 295 293
184 174 186 177 194 170 149 147 175 212 205 228 208 212 198 201 193 159 157 140 147 165 221 223 170 330 307 341 336 327 341 357 20 51 53 52 28 27 33 22 1 326 315
186 188 182 195 192 187 172 157 163 167 196 179 201 210 207 194 180 164 147 159 168 166 203 192 166 124 267 324 121 279 358 337 5 18 35 32 16 18 25 27 25 19 12
192 190 191 197 198 182 176 129 117 88 79 128 204 190 194 175 169 158 171 163 163 162 193 215 178 173 240 280 301 99 23 324 332 333 354 9 6 9 14 18 27 27 22
201 196 196 198 192 185 172 175 167 171 180 215 191 189 178 167 161 163 158 161 167 164 193 217 174 174 175 224 29 102 108 105 356 326 335 325 344 10 10 22 34 36 31
194 192 198 196 189 181 180 185 181 174 188 205 191 185 172 171 179 179 176 168 172 179 201 199 180 182 199 144 195 133 53 56 107 153 285 317 334 340 10 27 45 35 24
196 193 194 191 197 182 182 185 183 184 184 177 183 177 176 176 194 212 191 186 174 176 192 197 211 211 201 192 181 182 172 169 202 215 292 299 286 307 329 351 20 20 12